Location: Bazinghen
(50.8246°N, 1.6616°E)
Time: 11:07:52
(UTC+00:00)

STARLINK-1212 - Pass Details

Date: 09 April 2020
Orbit: 377 x 382 km, 53.0° (Epoch: 26 May)

Event Time Altitude Azimuth Distance (km) Brightness Sun altitude
Rises 19:42:57 0° 289° (WNW) 2,268 8.9 -10.2°
Reaches altitude 10° 19:45:03 10° 283° (WNW) 1,411 7.1 -10.5°
Maximum altitude 19:48:04 44° 210° (SSW) 549 3.6 -10.9°
Enters shadow 19:50:14 17° 142° (SE) 1,079 4.6 -11.2°
